User: anonymous   Login
Location: Albany
(35.0000°S, 118.0000°E)
Time: 12:24:26
(UTC-05:00)
Language:

Cosmos 2227 Rocket - Orbit

View from above orbital plane
View from above orbital plane
View from above satellite
View from above satellite

Ground track
Ground track

The orbit data is extracted from the following two-line orbital elements,

1 22285U 92093B   14329.52904375  .00000375  00000-0  21829-3 0  4597
2 22285 071.0227 012.8945 0002131 127.9058 232.2257 14.14933126130324
Epoch (UTC): 25 November 2014 12:41:49
Eccentricity: 0.0002131
inclination: 71.0227°
perigee height: 841 km
apogee height: 844 km
right ascension of ascending node: 12.8945°
argument of perigee: 127.9058°
revolutions per day: 14.14933126
mean anomaly at epoch: 232.2257°
orbit number at epoch: 13032

The dashed part of the orbit path shows where the satellite is in the earth's shadow,  

DLR